This demonstration page uses our WeatherBlox Daily Observations layout. Learn more.

Left ArrowRight Arrow

34.74481, -87.66753

Hourly Observations for February 28, 2021

Temp ( °F °C ) Dew Point ( °F °C ) Humidity (%) Winds ( mph kmh ) Pressure ( in mb ) Visibility ( mi km ) Precip ( " mm )
12:53 am 00:53 Mostly Cloudy 70 21.1 61 16.1 73 73 S 15 24 30.02 1017 10 16 0.00 0.00
1:53 am 01:53 Mostly Clear 69 20.6 61 16.1 76 76 S 14 22 30.01 1016 10 16 0.00 0.00
2:53 am 02:53 Partly Cloudy 69 20.6 61 16.1 76 76 S 15 24 29.99 1016 10 16 0.00 0.00
3:53 am 03:53 Mostly Clear 69 20.6 60 15.6 73 73 S 16 26 29.98 1015 10 16 0.00 0.00
4:53 am 04:53 Mostly Clear 68 20 60 15.6 76 76 S 13 20 30.00 1016 10 16 0.00 0.00
5:53 am 05:53 Mostly Cloudy 68 20 60 15.6 76 76 SSW 13 20 29.99 1016 10 16 0.00 0.00
6:10 am 06:10 Partly Cloudy 68 20 60 15.6 76 76 SSW 13 20 30.00 1016 10 16 0.00 0.00
6:24 am 06:24 Mostly Cloudy 69 20.6 60 15.6 73 73 SSW 12 19 30.00 1016 10 16 0.00 0.00
6:53 am 06:53 Mostly Cloudy 69 20.6 60 15.6 73 73 SSW 9 15 30.00 1016 10 16 0.00 0.00
7:15 am 07:15 Partly Cloudy 69 20.6 60 15.6 73 73 S 12 19 30.00 1016 10 16 0.00 0.00
7:41 am 07:41 Mostly Cloudy 70 21.1 61 16.1 73 73 S 17 28 30.00 1016 10 16 0.00 0.00
7:53 am 07:53 Mostly Cloudy 70 21.1 61 16.1 73 73 SSW 13 20 30.00 1016 10 16 0.00 0.00
8:53 am 08:53 Cloudy 72 22.2 62 16.7 71 71 SSW 15 24 30.01 1016 10 16 0.00 0.00
9:53 am 09:53 Cloudy 74 23.3 63 17.2 69 69 SSW 14 22 30.00 1016 10 16 0.00 0.00
10:53 am 10:53 Mostly Cloudy 76 24.4 63 17.2 64 64 SSW 18 30 29.99 1016 10 16 0.00 0.00
11:53 am 11:53 Cloudy 76 24.4 63 17.2 64 64 SW 17 28 29.97 1015 10 16 0.00 0.00
12:20 pm 12:20 Cloudy 76 24.4 62 16.7 62 62 SW 16 26 29.95 1014 10 16 0.00 0.00
12:53 pm 12:53 Cloudy 76 24.4 62 16.7 62 62 SW 16 26 29.94 1014 10 16 0.00 0.00
1:53 pm 13:53 Mostly Sunny 77 25 63 17.2 62 62 SSW 10 17 29.90 1013 10 16 0.00 0.00
2:53 pm 14:53 Mostly Cloudy 78 25.6 62 16.7 58 58 SSW 14 22 29.88 1012 10 16 0.00 0.00
3:53 pm 15:53 Mostly Sunny 79 26.1 61 16.1 54 54 SSW 13 20 29.86 1011 10 16 0.00 0.00
4:53 pm 16:53 Cloudy 77 25 61 16.1 58 58 SSW 8 13 29.85 1011 10 16 0.00 0.00
5:53 pm 17:53 Cloudy 75 23.9 61 16.1 62 62 S 6 9 29.87 1012 10 16 0.00 0.00
6:53 pm 18:53 Cloudy 74 23.3 61 16.1 64 64 S 9 15 29.87 1012 10 16 0.00 0.00
7:53 pm 19:53 Partly Cloudy 74 23.3 60 15.6 62 62 S 10 17 29.84 1011 10 16 0.00 0.00
8:53 pm 20:53 Clear 74 23.3 60 15.6 62 62 S 13 20 29.82 1010 10 16 0.00 0.00
9:53 pm 21:53 Cloudy 72 22.2 61 16.1 68 68 WSW 15 24 29.87 1012 10 16 0.00 0.00
10:03 pm 22:03 Cloudy 67 19.4 56 13.3 68 68 N 13 20 29.90 1012 10 16 0.00 0.00
10:11 pm 22:11 Cloudy 64 17.8 55 12.8 73 73 N 12 19 29.90 1013 10 16 0.00 0.00
10:33 pm 22:33 Cloudy with Nearby Thunderstorms 61 16.1 54 12.2 78 78 N 14 22 29.95 1014 3 5 0.06 1.52
10:37 pm 22:37 Cloudy with Strong Thunderstorms 61 16.1 54 12.2 78 78 NNW 16 26 29.94 1014 3 4 0.09 2.29
10:53 pm 22:53 Cloudy with Rain 60 15.6 55 12.8 84 84 N 9 15 29.93 1014 3 5 0.22 5.59
11:53 pm 23:53 Cloudy 60 15.6 54 12.2 80 80 N 7 11 29.91 1013 10 16 0.05 1.27

Powered by AerisWeather